Weather History for KBLH - August, 2013

Change the Weather History Date:

Saturday, August 24, 2013

  Actual Average Record
Temperature  
Mean Temperature 87 °F -  
Max Temperature 100 °F 104 °F 117 °F (1985)
Min Temperature 75 °F 79 °F 68 °F (1992)
Cooling Degree Days 22    
Growing Degree Days 37 (Base 50)    
Moisture  
Dew Point 68 °F    
Average Humidity 58    
Maximum Humidity 91    
Minimum Humidity 30    
Precipitation  
Precipitation 0.30 in - - ()
Sea Level Pressure  
Sea Level Pressure 29.79 in    
Wind  
Wind Speed 10 mph (South)    
Max Wind Speed 23 mph    
Max Gust Speed 26 mph    
Visibility 9 miles    
Events Rain , Thunderstorm    
Averages and records for this station are not official NWS values.
T = Trace of Precipitation, MM = Missing Value Source: NWS Daily Summary

Daily Weather History Graph

Daily Weather History Graph

Search for Another Location

Airport or City:

Trip Planner

Search our weather history database for the weather conditions in past years. The results will help you decide how hot, cold, wet, or windy it might be!

Date:

Astronomy

Aug. 24, 2013 Rise Set
Actual Time 6:07 AM PDT 7:14 PM PDT
Civil Twilight 5:41 AM PDT 7:39 PM PDT
Nautical Twilight 5:11 AM PDT 8:10 PM PDT
Astronomical Twilight 4:39 AM PDT 8:41 PM PDT
Moon 9:26 PM PDT (8/24) 9:56 AM PDT (8/24)
Length of Visible Light 13h 58m
Length of Day
13h 06m
Waning Gibbous, 83% of the Moon is Illuminated
Aug 24
Waning Gibbous
Aug 28
Last Quarter
Sep 5
New
Sep 12
First Quarter
Sep 19
Full

Hourly Weather History & Observations

Time (PDT) Temp. Heat Index Dew Point Humidity Pressure Visibility Wind Dir Wind Speed Gust Speed Precip Events Conditions
12:52 AM 91.9 °F 93.3 °F 64.0 °F 39% 29.70 in 10.0 mi SSW 10.4 mph - N/A   Clear
1:52 AM 90.0 °F 91.7 °F 64.9 °F 43% 29.71 in 10.0 mi SSW 13.8 mph - N/A   Clear
2:52 AM 87.1 °F 91.3 °F 69.1 °F 55% 29.72 in 10.0 mi SSW 11.5 mph - N/A   Partly Cloudy
3:52 AM 86.0 °F 90.7 °F 70.0 °F 59% 29.73 in 10.0 mi South 9.2 mph - N/A   Clear
4:52 AM 84.9 °F 91.4 °F 73.0 °F 67% 29.74 in 10.0 mi SSW 9.2 mph - N/A   Clear
5:52 AM 84.9 °F 89.4 °F 70.0 °F 61% 29.74 in 10.0 mi South 6.9 mph - N/A   Clear
6:52 AM 86.0 °F 88.8 °F 66.9 °F 53% 29.75 in 10.0 mi SSW 6.9 mph - N/A   Clear
7:52 AM 87.1 °F 89.9 °F 66.9 °F 51% 29.78 in 10.0 mi South 10.4 mph - N/A   Clear
8:52 AM 88.0 °F 91.4 °F 68.0 °F 51% 29.82 in 10.0 mi SE 4.6 mph - N/A   Clear
9:52 AM 93.9 °F 97.0 °F 66.0 °F 40% 29.83 in 10.0 mi ESE 12.7 mph 23.0 mph N/A   Clear
10:52 AM 93.0 °F 95.9 °F 66.0 °F 41% 29.85 in 10.0 mi East 19.6 mph - N/A   Partly Cloudy
11:52 AM 96.1 °F 98.3 °F 64.0 °F 35% 29.84 in 10.0 mi East 16.1 mph 23.0 mph N/A   Clear
12:52 PM 97.0 °F 98.3 °F 63.0 °F 32% 29.81 in 10.0 mi East 15.0 mph 23.0 mph N/A   Clear
1:52 PM 99.0 °F 100.5 °F 62.1 °F 30% 29.78 in 10.0 mi East 11.5 mph - N/A   Clear
2:52 PM 97.0 °F 97.8 °F 62.1 °F 31% 29.76 in 10.0 mi East 9.2 mph - N/A   Clear
3:52 PM 97.0 °F 97.8 °F 62.1 °F 31% 29.75 in 10.0 mi ESE 8.1 mph - N/A   Clear
4:32 PM 96.8 °F 98.0 °F 62.6 °F 32% 29.79 in 10.0 mi SW 6.9 mph - N/A Thunderstorm Partly Cloudy
4:52 PM 91.9 °F 95.9 °F 68.0 °F 45% 29.78 in 9.0 mi WSW 23.0 mph 26.5 mph 0.00 in Rain , Thunderstorm Light Rain
5:48 PM 77.0 °F - 71.6 °F 83% 29.87 in 1.5 mi SSW 9.2 mph - 0.15 in Rain , Thunderstorm Heavy Thunderstorms and Rain
5:52 PM 75.9 °F - 73.0 °F 91% 29.85 in 1.2 mi SW 9.2 mph - 0.22 in Rain , Thunderstorm Heavy Thunderstorms and Rain
5:58 PM 75.2 °F - 71.6 °F 89% 29.85 in 2.5 mi West 15.0 mph - 0.01 in Rain , Thunderstorm Thunderstorms and Rain
6:05 PM 77.0 °F - 71.6 °F 83% 29.84 in 8.0 mi WNW 11.5 mph - 0.02 in Rain , Thunderstorm Light Thunderstorms and Rain
6:52 PM 79.0 °F - 72.0 °F 79% 29.83 in 10.0 mi South 4.6 mph - 0.07 in Rain , Thunderstorm Light Thunderstorms and Rain
7:05 PM 80.6 °F 83.9 °F 69.8 °F 70% 29.81 in 10.0 mi SSE 9.2 mph - 0.00 in Rain Light Rain
7:27 PM 78.8 °F - 69.8 °F 74% 29.79 in 10.0 mi SE 9.2 mph - 0.01 in Rain Light Rain
7:52 PM 78.1 °F - 70.0 °F 76% 29.79 in 10.0 mi SSE 5.8 mph - 0.01 in   Mostly Cloudy
8:52 PM 80.1 °F 83.6 °F 71.1 °F 74% 29.81 in 10.0 mi SW 10.4 mph - N/A   Clear
9:52 PM 80.1 °F 83.6 °F 71.1 °F 74% 29.83 in 10.0 mi West 5.8 mph - N/A   Clear
10:52 PM 80.1 °F 83.6 °F 71.1 °F 74% 29.83 in 10.0 mi WNW 5.8 mph - N/A   Clear
11:52 PM 79.0 °F - 73.0 °F 82% 29.84 in 10.0 mi Calm Calm - N/A   Clear